Regional Weather Roundup
Issued by NWS

Home | Current Version | Previous Version | Text Only | Print | Product List | Glossary On
Versions: 1 2 3 4 5 6 7 8 9 10 11 12 13 14 15 16 17 18 19 20 21 22 23 24 25 26 27 28 29 30 31 32 33 34 35 36 37 38 39 40 41 42 43 44 45 46 47 48 49 50
993
ASUS44 KLIX 300301
RWRLA
LOUISIANA WEATHER ROUNDUP
NATIONAL WEATHER SERVICE NEW ORLEANS LA
1000 PM CDT TUE JUL 29 2014

NOTE: "FAIR" INDICATES FEW OR NO CLOUDS BELOW 12,000 FEET WITH NO
      SIGNIFICANT WEATHER AND/OR OBSTRUCTIONS TO VISIBILITY.
      SKY/WX - SKY CONDITION AND SIGNIFICANT WEATHER.
      TMP - AIR TEMPERATURE.    DP   - DEWPOINT TEMPERATURE.
      RH  - RELATIVE HUMIDITY.  PRES - PRESSURE.
      HX  - HEAT INDEX.         WCI  - WIND CHILL INDEX.

*  THESE STATIONS ARE NOT NWS OR FAA STATIONS AND ARE NOT UNDER
   NWS QUALITY CONTROL.

LAZ040-048-061>063-065-066-069-300400-
SOUTHEAST LOUISIANA

CITY           SKY/WX    TMP DP  RH WIND       PRES   REMARKS
N.O. AUDUBON     N/A     82  64  54 MISG        N/A
N.O. INTL ARPT PTCLDY    80  63  55 N6        30.02R
N.O. LAKEFRONT CLEAR     84  65  52 N12       30.02R
N.O. DOWNTOWN* FAIR      84  61  45 N5        30.03R
SLIDELL        CLEAR     74  70  87 CALM      30.02R
BATON ROUGE    CLEAR     75  69  81 CALM      30.04R
BOOTHVILLE     PTCLDY    78  72  81 CALM      30.02R
BELLE CHASSE   MOCLDY    73  68  84 CALM      30.02R
BOGALUSA*      FAIR      76  67  75 N6        30.05R
GALLIANO*      NOT AVBL
NEW ROADS*     FAIR      75  71  86 CALM      30.04R
GONZALES*      FAIR      73  72  98 CALM      30.03R
HAMMOND*       MOCLDY    75  68  78 CALM      30.05R
HOUMA*         CLEAR     77  66  70 CALM      30.03R
PORT FOURCHON* CLEAR     82  70  65 NE3       30.04R

$$

LAZ041-044-053-054-300400-
SOUTHWEST LOUISIANA

CITY           SKY/WX    TMP DP  RH WIND       PRES   REMARKS
LAKE CHARLES   CLEAR     79  70  74 CALM      30.03S
LAFAYETTE      CLEAR     77  73  87 CALM      30.04R
PATTERSON      CLEAR     79  70  73 N6        30.07S
SALT POINT       N/A     80  71  74 CALM      30.03R
NEW IBERIA     CLEAR     77  68  73 N3        30.04S
CHENAULT AIRPK CLEAR     79  69  71 CALM      30.05S

$$

LAZ027-028-300400-
CENTRAL LOUISIANA

CITY           SKY/WX    TMP DP  RH WIND       PRES   REMARKS
FORT POLK      CLEAR     77  72  84 CALM      30.04F
ALEXANDRIA INT CLEAR     78  69  73 NE7       30.03R
ALEXANDRIA     CLEAR     77  69  76 CALM      30.06R

$$

LAZ001-002-300400-
NORTHWEST LOUISIANA

CITY           SKY/WX    TMP DP  RH WIND       PRES   REMARKS
SHREVEPORT     PTCLDY    81  65  58 E9        30.06R
BARKSDALE AFB  PTCLDY    77  66  67 VRB2      30.06S
DTN SHREVEPORT PTCLDY    79  65  62 NE5       30.06S

$$

LAZ014-016-300400-
NORTHEAST LOUISIANA

CITY           SKY/WX    TMP DP  RH WIND       PRES   REMARKS
MONROE         CLEAR     72  63  73 NE6       30.09R
TALLULAH       CLEAR     71  63  75 N7        30.07R

$$




USA.gov is the U.S. government's official web portal to all federal, state and local government web resources and services.